This demonstration page uses our WeatherBlox Daily Observations layout. Learn more.

40.92945, -100.16068

Hourly Observations for January 17, 2020

Temp ( °F °C ) Dew Point ( °F °C ) Humidity (%) Winds ( mph kmh ) Pressure ( in mb ) Visibility ( mi km ) Precip ( " mm )
12:15 am 00:15 Cloudy 20 -6.9 11 -11.4 71 71 SE 13 20 30.5 1033 10 16.0934 0 0
12:35 am 00:35 Cloudy 20 -6.5 12 -11 71 71 SE 10 17 30.48 1032 10 16.0934 0 0
12:55 am 00:55 Cloudy 21 -6.2 14 -10.1 74 74 SE 13 20 30.46 1032 10 16.0934 0 0
1:15 am 01:15 Cloudy 21 -6.2 15 -9.5 78 78 SE 16 26 30.44 1031 10 16.0934 0 0
1:35 am 01:35 Cloudy 21 -6.2 17 -8.5 84 84 SE 14 22 30.42 1030 10 16.0934 0 0
1:55 am 01:55 Cloudy with Light Snow 21 -6.1 18 -7.9 87 87 SE 14 22 30.41 1030 7 11.26538 0 0
2:15 am 02:15 Cloudy with Light Snow 21 -6.2 19 -7.5 91 91 SE 13 20 30.4 1030 4 6.43736 0 0
2:35 am 02:35 Cloudy with Light Snow 21 -6.1 19 -7.3 91 91 SE 14 22 30.4 1029 4 6.43736 0 0
2:55 am 02:55 Cloudy with Light Snow 21 -6.1 19 -7.2 92 92 SE 13 20 30.38 1029 4 6.43736 0 0
3:15 am 03:15 Cloudy with Light Snow 22 -5.8 20 -6.8 93 93 SE 14 22 30.37 1028 7 11.26538 0 0
3:35 am 03:35 Cloudy with Light Snow 22 -5.8 20 -6.8 93 93 SE 14 22 30.35 1028 3 4.82802 0 0
3:55 am 03:55 Cloudy with Light Snow 22 -5.7 20 -6.7 93 93 SE 14 22 30.34 1027 2 3.21868 0.01 0.254
4:15 am 04:15 Cloudy with Light Snow 22 -5.6 20 -6.6 93 93 SE 14 22 30.3 1026 2 3.21868 0 0
4:35 am 04:35 Cloudy with Light Snow 22 -5.6 20 -6.5 93 93 SE 14 22 30.29 1026 2 3.21868 0.01 0.254
4:55 am 04:55 Cloudy with Light Snow 22 -5.5 20 -6.5 93 93 SE 13 20 30.27 1025 2.5 4.02335 0.02 0.508
5:15 am 05:15 Cloudy with Light Snow 22 -5.4 21 -6.3 93 93 SE 16 26 30.25 1024 1.75 2.816345 0.01 0.254
5:35 am 05:35 Cloudy with Light Snow 23 -5.2 21 -6.2 93 93 SE 17 28 30.22 1023 1.75 2.816345 0.02 0.508
5:55 am 05:55 Cloudy with Light Snow 23 -5.1 21 -6 93 93 SE 16 26 30.21 1023 1.75 2.816345 0.03 0.762
6:15 am 06:15 Cloudy with Light Snow 23 -5 22 -5.7 95 95 SE 14 22 30.2 1023 2 3.21868 0.01 0.254
6:35 am 06:35 Cloudy with Light Snow 24 -4.4 23 -5.1 95 95 SE 14 22 30.18 1022 3 4.82802 0.02 0.508
6:55 am 06:55 Cloudy with Light Snow 26 -3.6 24 -4.3 95 95 SE 16 26 30.16 1021 4 6.43736 0.03 0.762
7:15 am 07:15 Cloudy with Light Snow 26 -3.5 25 -4 96 96 SE 18 30 30.16 1021 4 6.43736 0 0
7:35 am 07:35 Cloudy with Light Snow 26 -3.5 25 -3.8 98 98 SSE 17 28 30.16 1021 2 3.21868 0.01 0.254
7:55 am 07:55 Cloudy 26 -3.5 25 -3.7 99 99 SSE 17 28 30.15 1021 7 11.26538 0.02 0.508
8:15 am 08:15 Cloudy with Light Snow 27 -3 26 -3.2 99 99 SSE 16 26 30.13 1020 1.75 2.816345 0 0
8:35 am 08:35 Windy with Snow Likely 28 -2.4 27 -2.7 98 98 SSE 20 31 30.11 1020 1.25 2.011675 0 0
8:55 am 08:55 Cloudy with Mist and Fog 29 -1.8 28 -2.3 96 96 SSE 18 30 30.07 1018 1.5 2.41401 0 0
9:15 am 09:15 Cloudy with Light Wintry Mix 29 -1.7 28 -2.2 96 96 S 21 33 30.07 1018 1.25 2.011675 0 0
9:35 am 09:35 Cloudy with Light Wintry Mix 29 -1.8 28 -2.3 96 96 S 18 30 30.07 1018 1.5 2.41401 0 0
9:55 am 09:55 Cloudy with Light Wintry Mix 29 -1.8 28 -2.3 96 96 SSE 17 28 30.05 1018 1.5 2.41401 0 0
10:15 am 10:15 Cloudy with Light Wintry Mix 29 -1.8 28 -2.2 97 97 SSE 20 31 30.03 1017 1.5 2.41401 0 0
10:35 am 10:35 Cloudy with Mist and Fog 29 -1.8 28 -2.2 97 97 SSE 20 31 30.01 1016 1.5 2.41401 0 0
10:55 am 10:55 Cloudy with Mist and Fog 29 -1.6 28 -2 97 97 SSE 15 24 30.01 1016 1.75 2.816345 0 0
11:15 am 11:15 Cloudy with Mist and Fog 29 -1.5 28 -2 96 96 SSE 16 26 30 1016 2 3.21868 0 0
11:35 am 11:35 Cloudy with Mist and Fog 29 -1.5 28 -2 96 96 S 17 28 29.99 1016 1.75 2.816345 0 0
11:55 am 11:55 Cloudy with Mist and Fog 30 -1.2 29 -1.7 96 96 SSE 15 24 29.95 1014 2 3.21868 0.01 0.254
12:15 pm 12:15 Cloudy with Mist and Fog 30 -1 29 -1.5 96 96 S 12 19 29.94 1014 4 6.43736 0 0
12:35 pm 12:35 Cloudy with Mist and Fog 30 -0.9 30 -1.3 97 97 S 14 22 29.92 1013 2.5 4.02335 0 0
12:55 pm 12:55 Cloudy with Mist and Fog 31 -0.7 30 -1.1 97 97 S 14 22 29.9 1013 2 3.21868 0 0
1:15 pm 13:15 Cloudy with Mist and Fog 31 -0.6 30 -1.1 96 96 S 10 17 29.87 1012 2 3.21868 0 0
1:35 pm 13:35 Cloudy with Mist and Fog 31 -0.5 30 -0.9 97 97 S 9 15 29.86 1011 2 3.21868 0 0
1:55 pm 13:55 Cloudy with Mist and Fog 31 -0.5 31 -0.8 98 98 S 10 17 29.86 1011 2.5 4.02335 0 0
2:15 pm 14:15 Cloudy with Mist and Fog 31 -0.4 31 -0.7 98 98 S 9 15 29.85 1011 2 3.21868 0 0
2:35 pm 14:35 Cloudy with Mist and Fog 31 -0.3 31 -0.6 98 98 S 9 15 29.84 1010 2 3.21868 0 0
2:55 pm 14:55 Cloudy with Mist and Fog 31 -0.3 31 -0.6 98 98 S 8 13 29.82 1010 2 3.21868 0 0
3:15 pm 15:15 Cloudy with Mist and Fog 32 -0.2 31 -0.5 98 98 S 8 13 29.81 1009 2 3.21868 0 0
3:35 pm 15:35 Cloudy with Mist and Fog 32 -0.2 31 -0.5 98 98 SSE 6 9 29.81 1009 2.5 4.02335 0 0
3:55 pm 15:55 Cloudy with Mist and Fog 32 -0.1 31 -0.3 99 99 S 6 9 29.81 1009 2.5 4.02335 0 0
4:15 pm 16:15 Cloudy with Mist and Fog 32 -0.1 32 -0.2 99 99 S 6 9 29.81 1009 2.5 4.02335 0 0
4:35 pm 16:35 Cloudy with Mist and Fog 32 -0.1 32 -0.2 99 99 SSW 6 9 29.82 1010 2.5 4.02335 0 0
4:55 pm 16:55 Cloudy with Mist and Fog 32 -0.1 32 -0.2 99 99 SW 3 6 29.83 1010 2.5 4.02335 0 0
5:15 pm 17:15 Cloudy with Mist and Fog 32 0 32 -0.1 99 99 Calm 29.84 1010 2.5 4.02335 0 0
5:35 pm 17:35 Cloudy with Mist and Fog 32 0 32 -0.1 99 99 Calm 29.83 1010 5 8.0467 0 0
5:55 pm 17:55 Cloudy 32 0 32 -0.1 99 99 Calm 29.83 1010 7 11.26538 0 0
6:15 pm 18:15 Cloudy 32 0 32 -0.1 99 99 Calm 29.83 1010 10 16.0934 0 0
6:35 pm 18:35 Cloudy 32 -0.2 31 -0.3 99 99 S 5 7 29.81 1009 10 16.0934 0 0
6:55 pm 18:55 Partly Cloudy 31 -0.7 31 -0.8 99 99 S 5 7 29.81 1010 10 16.0934 0 0
7:15 pm 19:15 Mostly Cloudy 30 -1 30 -1 100 100 SSW 5 7 29.82 1010 10 16.0934 0 0
7:35 pm 19:35 Partly Cloudy 30 -1.1 30 -1.3 99 99 SSW 5 7 29.82 1010 10 16.0934 0 0
7:55 pm 19:55 Mostly Cloudy 30 -0.9 30 -1 99 99 SSW 7 11 29.81 1010 10 16.0934 0 0
8:15 pm 20:15 Cloudy 31 -0.6 31 -0.8 99 99 SW 5 7 29.83 1010 10 16.0934 0 0
8:35 pm 20:35 Cloudy 31 -0.6 31 -0.7 99 99 SSW 3 6 29.83 1010 10 16.0934 0 0
8:55 pm 20:55 Cloudy 31 -0.6 31 -0.7 99 99 S 3 6 29.84 1011 10 16.0934 0 0
9:15 pm 21:15 Cloudy with Light Snow 31 -0.5 31 -0.7 99 99 Calm 29.87 1012 7 11.26538 0 0
9:35 pm 21:35 Cloudy with Light Snow 31 -0.6 31 -0.6 100 100 Calm 29.87 1012 3 4.82802 0 0
9:55 pm 21:55 Cloudy 31 -0.7 31 -0.7 100 100 W 5 7 29.88 1012 7 11.26538 0 0
10:15 pm 22:15 Cloudy 31 -0.5 31 -0.5 100 100 WNW 6 9 29.9 1013 7 11.26538 0 0
10:35 pm 22:35 Cloudy 32 0 31 -0.4 97 97 NW 9 15 29.9 1012 10 16.0934 0 0
10:55 pm 22:55 Cloudy 33 0.7 31 -0.5 92 92 NW 20 31 29.93 1014 10 16.0934 0 0
11:15 pm 23:15 Windy with Snow Likely 29 -1.4 26 -3.1 88 88 NW 23 37 30 1016 3 4.82802 0 0
11:35 pm 23:35 Cloudy 27 -3 23 -4.8 88 88 NW 23 37 30.04 1017 7 11.26538 0 0
11:55 pm 23:55 Cloudy 25 -4 21 -6.3 84 84 NNW 22 35 30.09 1019 10 16.0934 0 0

Powered by AerisWeather